Year,Month,Day,Hour,Minute,Value (Times are PST for windgust in km/hr)
2011,03,03,00,00,3.20
2011,03,03,00,01,3.20
2011,03,03,00,02,3.20
2011,03,03,00,03,3.20
2011,03,03,00,04,3.20
2011,03,03,00,07,3.20
2011,03,03,00,08,3.20
2011,03,03,00,09,3.20
2011,03,03,00,10,3.20
2011,03,03,00,11,4.80
2011,03,03,00,12,4.80
2011,03,03,00,13,6.40
2011,03,03,00,14,4.80
2011,03,03,00,15,3.20
2011,03,03,00,16,4.80
2011,03,03,00,17,4.80
2011,03,03,00,18,4.80
2011,03,03,00,19,6.40
2011,03,03,00,20,6.40
2011,03,03,00,21,4.80
2011,03,03,00,22,3.20
2011,03,03,00,23,4.80
2011,03,03,00,24,4.80
2011,03,03,00,25,4.80
2011,03,03,00,26,4.80
2011,03,03,00,27,4.80
2011,03,03,00,28,4.80
2011,03,03,00,29,4.80
2011,03,03,00,30,4.80
2011,03,03,00,31,4.80
2011,03,03,00,32,4.80
2011,03,03,00,33,4.80
2011,03,03,00,34,3.20
2011,03,03,00,38,3.20
2011,03,03,00,39,4.80
2011,03,03,00,40,4.80
2011,03,03,00,41,6.40
2011,03,03,00,42,6.40
2011,03,03,00,43,3.20
2011,03,03,00,44,3.20
2011,03,03,00,45,3.20
2011,03,03,00,46,3.20
2011,03,03,00,47,3.20
2011,03,03,00,49,1.60
2011,03,03,00,51,3.20
2011,03,03,00,52,4.80
2011,03,03,00,53,4.80
2011,03,03,00,54,6.40
2011,03,03,00,55,6.40
2011,03,03,00,56,6.40
2011,03,03,00,57,4.80
2011,03,03,00,58,6.40
2011,03,03,00,59,3.20
2011,03,03,01,01,1.60
2011,03,03,01,02,3.20
2011,03,03,01,03,3.20
2011,03,03,01,04,4.80
2011,03,03,01,05,6.40
2011,03,03,01,06,6.40
2011,03,03,01,07,4.80
2011,03,03,01,08,4.80
2011,03,03,01,09,4.80
2011,03,03,01,10,4.80
2011,03,03,01,11,4.80
2011,03,03,01,12,8.10
2011,03,03,01,13,6.40
2011,03,03,01,14,6.40
2011,03,03,01,15,6.40
2011,03,03,01,16,4.80
2011,03,03,01,17,6.40
2011,03,03,01,18,8.10
2011,03,03,01,19,6.40
2011,03,03,01,20,6.40
2011,03,03,01,21,6.40
2011,03,03,01,22,4.80
2011,03,03,01,23,6.40
2011,03,03,01,24,6.40
2011,03,03,01,25,9.60
2011,03,03,01,26,6.40
2011,03,03,01,27,8.10
2011,03,03,01,28,6.40
2011,03,03,01,29,6.40
2011,03,03,01,30,9.60
2011,03,03,01,31,9.60
2011,03,03,01,32,6.40
2011,03,03,01,33,6.40
2011,03,03,01,34,8.10
2011,03,03,01,35,6.40
2011,03,03,01,36,6.40
2011,03,03,01,37,4.80
2011,03,03,01,38,4.80
2011,03,03,01,39,6.40
2011,03,03,01,40,8.10
2011,03,03,01,41,9.60
2011,03,03,01,42,6.40
2011,03,03,01,43,8.10
2011,03,03,01,44,8.10
2011,03,03,01,45,8.10
2011,03,03,01,46,8.10
2011,03,03,01,47,8.10
2011,03,03,01,48,8.10
2011,03,03,01,49,6.40
2011,03,03,01,50,4.80
2011,03,03,01,51,6.40
2011,03,03,01,52,6.40
2011,03,03,01,53,8.10
2011,03,03,01,54,6.40
2011,03,03,01,55,6.40
2011,03,03,01,56,6.40
2011,03,03,01,57,4.80
2011,03,03,01,58,4.80
2011,03,03,01,59,4.80
2011,03,03,02,00,6.40
2011,03,03,02,01,4.80
2011,03,03,02,02,8.10
2011,03,03,02,03,8.10
2011,03,03,02,04,4.80
2011,03,03,02,05,6.40
2011,03,03,02,06,6.40
2011,03,03,02,07,3.20
2011,03,03,02,08,6.40
2011,03,03,02,09,3.20
2011,03,03,02,10,4.80
2011,03,03,02,11,4.80
2011,03,03,02,12,6.40
2011,03,03,02,13,6.40
2011,03,03,02,14,6.40
2011,03,03,02,15,4.80
2011,03,03,02,16,4.80
2011,03,03,02,17,4.80
2011,03,03,02,18,3.20
2011,03,03,02,19,3.20
2011,03,03,02,20,4.80
2011,03,03,02,21,3.20
2011,03,03,02,22,3.20
2011,03,03,02,23,4.80
2011,03,03,02,24,3.20
2011,03,03,02,25,3.20
2011,03,03,02,26,4.80
2011,03,03,02,27,4.80
2011,03,03,02,28,4.80
2011,03,03,02,29,4.80
2011,03,03,02,30,4.80
2011,03,03,02,31,3.20
2011,03,03,02,32,3.20
2011,03,03,02,33,3.20
2011,03,03,02,34,1.60
2011,03,03,02,45,1.60
2011,03,03,02,46,3.20
2011,03,03,02,47,3.20
2011,03,03,02,48,3.20
2011,03,03,02,50,1.60
2011,03,03,02,51,3.20
2011,03,03,02,52,1.60
2011,03,03,02,53,1.60
2011,03,03,03,13,3.20
2011,03,03,03,14,3.20
2011,03,03,03,15,4.80
2011,03,03,03,16,4.80
2011,03,03,03,17,3.20
2011,03,03,03,18,1.60
2011,03,03,03,20,3.20
2011,03,03,03,21,6.40
2011,03,03,03,22,4.80
2011,03,03,03,23,4.80
2011,03,03,03,24,4.80
2011,03,03,03,25,4.80
2011,03,03,03,26,3.20
2011,03,03,03,32,1.60
2011,03,03,03,33,3.20
2011,03,03,03,39,3.20
2011,03,03,03,40,1.60
2011,03,03,03,46,3.20
2011,03,03,03,47,3.20
2011,03,03,03,54,1.60
2011,03,03,04,18,4.80
2011,03,03,04,19,4.80
2011,03,03,04,20,4.80
2011,03,03,04,21,3.20
2011,03,03,04,22,3.20
2011,03,03,04,23,3.20
2011,03,03,04,24,1.60
2011,03,03,04,25,1.60
2011,03,03,04,26,3.20
2011,03,03,04,32,1.60
2011,03,03,04,35,1.60
2011,03,03,04,36,4.80
2011,03,03,04,38,1.60
2011,03,03,04,39,1.60
2011,03,03,04,49,1.60
2011,03,03,04,50,3.20
2011,03,03,04,55,3.20
2011,03,03,04,56,4.80
2011,03,03,04,57,4.80
2011,03,03,04,58,6.40
2011,03,03,04,59,6.40
2011,03,03,05,00,4.80
2011,03,03,05,01,1.60
2011,03,03,05,02,3.20
2011,03,03,05,03,4.80
2011,03,03,05,04,4.80
2011,03,03,05,05,4.80
2011,03,03,05,06,3.20
2011,03,03,05,07,3.20
2011,03,03,05,08,8.10
2011,03,03,05,09,8.10
2011,03,03,05,10,4.80
2011,03,03,05,11,3.20
2011,03,03,05,12,1.60
2011,03,03,05,16,1.60
2011,03,03,05,17,1.60
2011,03,03,05,19,4.80
2011,03,03,05,20,4.80
2011,03,03,05,21,3.20
2011,03,03,05,22,6.40
2011,03,03,05,23,8.10
2011,03,03,05,24,6.40
2011,03,03,05,25,6.40
2011,03,03,05,26,6.40
2011,03,03,05,27,6.40
2011,03,03,05,28,4.80
2011,03,03,05,29,4.80
2011,03,03,05,30,3.20
2011,03,03,05,57,3.20
2011,03,03,05,58,4.80
2011,03,03,05,59,4.80
2011,03,03,06,00,4.80
2011,03,03,06,01,6.40
2011,03,03,06,02,4.80
2011,03,03,06,03,1.60
2011,03,03,06,10,1.60
2011,03,03,06,11,3.20
2011,03,03,06,12,4.80
2011,03,03,06,13,3.20
2011,03,03,06,14,4.80
2011,03,03,06,15,3.20
2011,03,03,06,16,4.80
2011,03,03,06,17,3.20
2011,03,03,06,21,1.60
2011,03,03,06,22,3.20
2011,03,03,06,23,3.20
2011,03,03,06,24,3.20
2011,03,03,06,25,3.20
2011,03,03,06,26,1.60
2011,03,03,06,27,1.60
2011,03,03,06,28,1.60
2011,03,03,06,29,1.60
2011,03,03,06,57,4.80
2011,03,03,06,58,4.80
2011,03,03,06,59,4.80
2011,03,03,07,00,4.80
2011,03,03,07,01,3.20
2011,03,03,07,08,4.80
2011,03,03,07,09,4.80
2011,03,03,07,10,8.10
2011,03,03,07,11,9.60
2011,03,03,07,12,12.90
2011,03,03,07,13,8.10
2011,03,03,07,14,6.40
2011,03,03,07,15,4.80
2011,03,03,07,16,6.40
2011,03,03,07,17,4.80
2011,03,03,07,18,4.80
2011,03,03,07,19,3.20
2011,03,03,07,20,3.20
2011,03,03,07,21,3.20
2011,03,03,07,22,3.20
2011,03,03,07,23,4.80
2011,03,03,07,24,3.20
2011,03,03,07,27,3.20
2011,03,03,07,28,3.20
2011,03,03,07,29,3.20
2011,03,03,07,30,1.60
2011,03,03,07,32,3.20
2011,03,03,07,33,3.20
2011,03,03,07,34,3.20
2011,03,03,07,35,3.20
2011,03,03,07,40,3.20
2011,03,03,07,41,3.20
2011,03,03,08,13,1.60
2011,03,03,08,14,1.60
2011,03,03,08,15,1.60
2011,03,03,08,18,1.60
2011,03,03,08,19,1.60
2011,03,03,08,20,3.20
2011,03,03,08,21,3.20
2011,03,03,08,22,1.60
2011,03,03,08,29,3.20
2011,03,03,08,30,3.20
2011,03,03,08,31,3.20
2011,03,03,08,36,4.80
2011,03,03,08,37,4.80
2011,03,03,08,38,3.20
2011,03,03,08,41,1.60
2011,03,03,08,47,1.60
2011,03,03,08,48,1.60
2011,03,03,08,52,1.60
2011,03,03,08,53,1.60
2011,03,03,08,54,3.20
2011,03,03,08,55,3.20
2011,03,03,08,56,3.20
2011,03,03,08,57,1.60
2011,03,03,08,58,3.20
2011,03,03,08,59,3.20
2011,03,03,09,00,1.60
2011,03,03,09,02,4.80
2011,03,03,09,03,3.20
2011,03,03,09,04,4.80
2011,03,03,09,05,4.80
2011,03,03,09,06,4.80
2011,03,03,09,07,3.20
2011,03,03,09,08,3.20
2011,03,03,09,10,1.60
2011,03,03,09,11,1.60
2011,03,03,09,12,3.20
2011,03,03,09,22,4.80
2011,03,03,09,23,4.80
2011,03,03,09,25,1.60
2011,03,03,09,26,4.80
2011,03,03,09,27,3.20
2011,03,03,09,31,3.20
2011,03,03,09,34,4.80
2011,03,03,09,35,3.20
2011,03,03,09,41,3.20
2011,03,03,09,42,4.80
2011,03,03,09,43,3.20
2011,03,03,09,44,3.20
2011,03,03,09,45,4.80
2011,03,03,09,46,3.20
2011,03,03,09,47,3.20
2011,03,03,09,50,3.20
2011,03,03,10,10,1.60
2011,03,03,10,11,3.20
2011,03,03,10,12,4.80
2011,03,03,10,13,1.60
2011,03,03,10,15,1.60
2011,03,03,10,17,1.60
2011,03,03,10,18,1.60
2011,03,03,10,19,1.60
2011,03,03,10,21,1.60
2011,03,03,10,22,1.60
2011,03,03,10,23,4.80
2011,03,03,10,25,1.60
2011,03,03,10,28,4.80
2011,03,03,10,29,3.20
2011,03,03,10,31,3.20
2011,03,03,10,32,11.30
2011,03,03,10,33,11.30
2011,03,03,10,34,9.60
2011,03,03,10,35,4.80
2011,03,03,10,36,8.10
2011,03,03,10,37,8.10
2011,03,03,10,38,6.40
2011,03,03,10,40,4.80
2011,03,03,10,41,11.30
2011,03,03,10,42,11.30
2011,03,03,10,43,11.30
2011,03,03,10,44,9.60
2011,03,03,10,45,9.60
2011,03,03,10,46,9.60
2011,03,03,10,47,11.30
2011,03,03,10,48,6.40
2011,03,03,10,49,6.40
2011,03,03,10,50,11.30
2011,03,03,10,51,11.30
2011,03,03,10,52,9.60
2011,03,03,10,53,11.30
2011,03,03,10,54,11.30
2011,03,03,10,55,11.30
2011,03,03,10,56,11.30
2011,03,03,10,57,11.30
2011,03,03,10,58,9.60
2011,03,03,10,59,9.60
2011,03,03,11,00,9.60
2011,03,03,11,01,9.60
2011,03,03,11,02,12.90
2011,03,03,11,03,9.60
2011,03,03,11,04,11.30
2011,03,03,11,05,11.30
2011,03,03,11,06,9.60
2011,03,03,11,07,9.60
2011,03,03,11,08,12.90
2011,03,03,11,09,8.10
2011,03,03,11,10,4.80
2011,03,03,11,11,6.40
2011,03,03,11,12,8.10
2011,03,03,11,13,8.10
2011,03,03,11,14,8.10
2011,03,03,11,15,8.10
2011,03,03,11,16,6.40
2011,03,03,11,17,6.40
2011,03,03,11,19,1.60
2011,03,03,11,20,6.40
2011,03,03,11,21,8.10
2011,03,03,11,22,11.30
2011,03,03,11,23,11.30
2011,03,03,11,24,11.30
2011,03,03,11,25,8.10
2011,03,03,11,26,9.60
2011,03,03,11,27,6.40
2011,03,03,11,28,6.40
2011,03,03,11,29,6.40
2011,03,03,11,30,6.40
2011,03,03,11,31,6.40
2011,03,03,11,32,11.30
2011,03,03,11,33,6.40
2011,03,03,11,34,6.40
2011,03,03,11,35,6.40
2011,03,03,11,36,16.10
2011,03,03,11,37,11.30
2011,03,03,11,38,8.10
2011,03,03,11,39,4.80
2011,03,03,11,40,1.60
2011,03,03,11,41,1.60
2011,03,03,11,42,8.10
2011,03,03,11,43,6.40
2011,03,03,11,44,9.60
2011,03,03,11,45,8.10
2011,03,03,11,46,9.60
2011,03,03,11,47,4.80
2011,03,03,11,48,6.40
2011,03,03,11,49,9.60
2011,03,03,11,50,9.60
2011,03,03,11,51,9.60
2011,03,03,11,52,9.60
2011,03,03,11,53,4.80
2011,03,03,11,54,3.20
2011,03,03,11,55,11.30
2011,03,03,11,56,12.90
2011,03,03,11,57,8.10
2011,03,03,11,58,6.40
2011,03,03,11,59,6.40
2011,03,03,12,00,4.80
2011,03,03,12,01,6.40
2011,03,03,12,02,8.10
2011,03,03,12,03,9.60
2011,03,03,12,04,9.60
2011,03,03,12,05,16.10
2011,03,03,12,06,16.10
2011,03,03,12,07,16.10
2011,03,03,12,08,20.90
2011,03,03,12,09,14.50
2011,03,03,12,10,6.40
2011,03,03,12,11,16.10
2011,03,03,12,12,17.70
2011,03,03,12,13,11.30
2011,03,03,12,14,11.30
2011,03,03,12,15,16.10
2011,03,03,12,16,11.30
2011,03,03,12,17,8.10
2011,03,03,12,18,14.50
2011,03,03,12,19,17.70
2011,03,03,12,20,9.60
2011,03,03,12,21,11.30
2011,03,03,12,22,11.30
2011,03,03,12,23,16.10
2011,03,03,12,24,9.60
2011,03,03,12,25,11.30
2011,03,03,12,26,11.30
2011,03,03,12,27,14.50
2011,03,03,12,28,14.50
2011,03,03,12,29,11.30
2011,03,03,12,30,14.50
2011,03,03,12,31,9.60
2011,03,03,12,32,9.60
2011,03,03,12,33,20.90
2011,03,03,12,34,8.10
2011,03,03,12,35,9.60
2011,03,03,12,36,11.30
2011,03,03,12,37,8.10
2011,03,03,12,38,6.40
2011,03,03,12,39,16.10
2011,03,03,12,40,17.70
2011,03,03,12,41,12.90
2011,03,03,12,42,8.10
2011,03,03,12,43,4.80
2011,03,03,12,44,9.60
2011,03,03,12,45,6.40
2011,03,03,12,46,6.40
2011,03,03,12,47,8.10
2011,03,03,12,48,9.60
2011,03,03,12,49,16.10
2011,03,03,12,50,17.70
2011,03,03,12,51,11.30
2011,03,03,12,52,8.10
2011,03,03,12,53,4.80
2011,03,03,12,54,4.80
2011,03,03,12,55,9.60
2011,03,03,12,56,9.60
2011,03,03,12,57,8.10
2011,03,03,12,58,11.30
2011,03,03,12,59,11.30
2011,03,03,13,00,19.30
2011,03,03,13,01,11.30
2011,03,03,13,02,14.50
2011,03,03,13,03,11.30
2011,03,03,13,04,14.50
2011,03,03,13,05,11.30
2011,03,03,13,06,11.30
2011,03,03,13,07,8.10
2011,03,03,13,08,14.50
2011,03,03,13,09,8.10
2011,03,03,13,10,11.30
2011,03,03,13,11,11.30
2011,03,03,13,12,11.30
2011,03,03,13,13,11.30
2011,03,03,13,14,8.10
2011,03,03,13,15,8.10
2011,03,03,13,16,8.10
2011,03,03,13,17,8.10
2011,03,03,13,18,8.10
2011,03,03,13,19,6.40
2011,03,03,13,20,6.40
2011,03,03,13,21,8.10
2011,03,03,13,22,11.30
2011,03,03,13,23,6.40
2011,03,03,13,24,9.60
2011,03,03,13,25,9.60
2011,03,03,13,26,17.70
2011,03,03,13,27,17.70
2011,03,03,13,28,16.10
2011,03,03,13,29,19.30
2011,03,03,13,30,17.70
2011,03,03,13,31,20.90
2011,03,03,13,32,16.10
2011,03,03,13,33,12.90
2011,03,03,13,34,16.10
2011,03,03,13,35,9.60
2011,03,03,13,36,8.10
2011,03,03,13,37,14.50
2011,03,03,13,38,12.90
2011,03,03,13,39,11.30
2011,03,03,13,40,11.30
2011,03,03,13,41,14.50
2011,03,03,13,42,14.50
2011,03,03,13,43,12.90
2011,03,03,13,44,14.50
2011,03,03,13,45,14.50
2011,03,03,13,46,14.50
2011,03,03,13,47,11.30
2011,03,03,13,48,11.30
2011,03,03,13,49,4.80
2011,03,03,13,50,6.40
2011,03,03,13,51,6.40
2011,03,03,13,52,6.40
2011,03,03,13,53,3.20
2011,03,03,13,54,11.30
2011,03,03,13,55,9.60
2011,03,03,13,56,9.60
2011,03,03,13,57,9.60
2011,03,03,13,58,6.40
2011,03,03,13,59,9.60
2011,03,03,14,00,11.30
2011,03,03,14,01,11.30
2011,03,03,14,02,8.10
2011,03,03,14,03,8.10
2011,03,03,14,04,6.40
2011,03,03,14,05,8.10
2011,03,03,14,06,8.10
2011,03,03,14,07,8.10
2011,03,03,14,08,6.40
2011,03,03,14,09,8.10
2011,03,03,14,10,9.60
2011,03,03,14,11,9.60
2011,03,03,14,12,8.10
2011,03,03,14,13,9.60
2011,03,03,14,14,8.10
2011,03,03,14,15,9.60
2011,03,03,14,16,8.10
2011,03,03,14,17,6.40
2011,03,03,14,18,8.10
2011,03,03,14,19,11.30
2011,03,03,14,20,9.60
2011,03,03,14,21,11.30
2011,03,03,14,22,9.60
2011,03,03,14,23,6.40
2011,03,03,14,24,8.10
2011,03,03,14,25,11.30
2011,03,03,14,26,12.90
2011,03,03,14,27,14.50
2011,03,03,14,28,16.10
2011,03,03,14,29,14.50
2011,03,03,14,30,14.50
2011,03,03,14,31,11.30
2011,03,03,14,32,6.40
2011,03,03,14,33,14.50
2011,03,03,14,34,16.10
2011,03,03,14,35,9.60
2011,03,03,14,36,14.50
2011,03,03,14,37,11.30
2011,03,03,14,38,20.90
2011,03,03,14,39,27.40
2011,03,03,14,40,20.90
2011,03,03,14,41,27.40
2011,03,03,14,42,24.20
2011,03,03,14,43,25.70
2011,03,03,14,44,24.20
2011,03,03,14,45,32.20
2011,03,03,14,46,25.70
2011,03,03,14,47,30.60
2011,03,03,14,48,32.20
2011,03,03,14,49,25.70
2011,03,03,14,50,25.70
2011,03,03,14,51,22.50
2011,03,03,14,52,27.40
2011,03,03,14,53,22.50
2011,03,03,14,54,20.90
2011,03,03,14,55,16.10
2011,03,03,14,56,24.20
2011,03,03,14,57,17.70
2011,03,03,14,58,17.70
2011,03,03,14,59,22.50
2011,03,03,15,00,20.90
2011,03,03,15,01,22.50
2011,03,03,15,02,27.40
2011,03,03,15,03,17.70
2011,03,03,15,04,16.10
2011,03,03,15,05,16.10
2011,03,03,15,06,22.50
2011,03,03,15,07,19.30
2011,03,03,15,08,17.70
2011,03,03,15,09,17.70
2011,03,03,15,10,16.10
2011,03,03,15,11,9.60
2011,03,03,15,12,14.50
2011,03,03,15,13,11.30
2011,03,03,15,14,8.10
2011,03,03,15,15,11.30
2011,03,03,15,16,14.50
2011,03,03,15,17,14.50
2011,03,03,15,18,9.60
2011,03,03,15,19,11.30
2011,03,03,15,20,11.30
2011,03,03,15,21,17.70
2011,03,03,15,22,16.10
2011,03,03,15,23,17.70
2011,03,03,15,24,16.10
2011,03,03,15,25,17.70
2011,03,03,15,26,19.30
2011,03,03,15,27,17.70
2011,03,03,15,28,12.90
2011,03,03,15,29,17.70
2011,03,03,15,30,16.10
2011,03,03,15,31,22.50
2011,03,03,15,32,19.30
2011,03,03,15,33,17.70
2011,03,03,15,34,9.60
2011,03,03,15,35,9.60
2011,03,03,15,36,11.30
2011,03,03,15,37,11.30
2011,03,03,15,38,6.40
2011,03,03,15,39,4.80
2011,03,03,15,40,6.40
2011,03,03,15,41,3.20
2011,03,03,15,42,6.40
2011,03,03,15,43,8.10
2011,03,03,15,44,4.80
2011,03,03,15,45,1.60
2011,03,03,15,46,1.60
2011,03,03,15,47,4.80
2011,03,03,15,52,4.80
2011,03,03,15,53,3.20
2011,03,03,15,54,4.80
2011,03,03,15,55,4.80
2011,03,03,15,56,3.20
2011,03,03,15,57,3.20
2011,03,03,15,58,4.80
2011,03,03,15,59,4.80
2011,03,03,16,00,4.80
2011,03,03,16,01,6.40
2011,03,03,16,02,6.40
2011,03,03,16,03,6.40
2011,03,03,16,04,4.80
2011,03,03,16,05,6.40
2011,03,03,16,06,4.80
2011,03,03,16,07,4.80
2011,03,03,16,08,4.80
2011,03,03,16,09,4.80
2011,03,03,16,10,3.20
2011,03,03,16,11,4.80
2011,03,03,16,12,4.80
2011,03,03,16,13,4.80
2011,03,03,16,14,3.20
2011,03,03,16,15,4.80
2011,03,03,16,16,4.80
2011,03,03,16,17,6.40
2011,03,03,16,18,6.40
2011,03,03,16,19,6.40
2011,03,03,16,20,6.40
2011,03,03,16,21,6.40
2011,03,03,16,22,8.10
2011,03,03,16,23,11.30
2011,03,03,16,24,8.10
2011,03,03,16,25,6.40
2011,03,03,16,26,4.80
2011,03,03,16,27,6.40
2011,03,03,16,28,6.40
2011,03,03,16,29,3.20
2011,03,03,16,30,3.20
2011,03,03,16,31,1.60
2011,03,03,16,32,3.20
2011,03,03,16,33,3.20
2011,03,03,16,34,1.60
2011,03,03,16,44,3.20
2011,03,03,16,46,6.40
2011,03,03,16,47,6.40
2011,03,03,16,48,4.80
2011,03,03,16,49,3.20
2011,03,03,16,51,3.20
2011,03,03,16,52,6.40
2011,03,03,16,53,3.20
2011,03,03,16,54,6.40
2011,03,03,16,55,8.10
2011,03,03,16,56,9.60
2011,03,03,16,57,4.80
2011,03,03,16,58,3.20
2011,03,03,16,59,3.20
2011,03,03,17,00,11.30
2011,03,03,17,01,8.10
2011,03,03,17,02,9.60
2011,03,03,17,03,8.10
2011,03,03,17,04,16.10
2011,03,03,17,05,16.10
2011,03,03,17,06,11.30
2011,03,03,17,07,11.30
2011,03,03,17,08,9.60
2011,03,03,17,09,9.60
2011,03,03,17,10,20.90
2011,03,03,17,11,19.30
2011,03,03,17,12,11.30
2011,03,03,17,13,8.10
2011,03,03,17,14,9.60
2011,03,03,17,15,20.90
2011,03,03,17,16,22.50
2011,03,03,17,17,20.90
2011,03,03,17,18,11.30
2011,03,03,17,19,22.50
2011,03,03,17,20,20.90
2011,03,03,17,21,19.30
2011,03,03,17,22,27.40
2011,03,03,17,23,22.50
2011,03,03,17,24,24.20
2011,03,03,17,25,20.90
2011,03,03,17,26,25.70
2011,03,03,17,27,17.70
2011,03,03,17,28,30.60
2011,03,03,17,29,20.90
2011,03,03,17,30,30.60
2011,03,03,17,31,11.30
2011,03,03,17,32,22.50
2011,03,03,17,33,16.10
2011,03,03,17,34,20.90
2011,03,03,17,35,14.50
2011,03,03,17,36,14.50
2011,03,03,17,37,14.50
2011,03,03,17,38,11.30
2011,03,03,17,39,20.90
2011,03,03,17,40,14.50
2011,03,03,17,41,11.30
2011,03,03,17,42,14.50
2011,03,03,17,43,19.30
2011,03,03,17,44,27.40
2011,03,03,17,45,17.70
2011,03,03,17,46,9.60
2011,03,03,17,47,24.20
2011,03,03,17,48,19.30
2011,03,03,17,49,14.50
2011,03,03,17,50,17.70
2011,03,03,17,51,14.50
2011,03,03,17,52,11.30
2011,03,03,17,53,11.30
2011,03,03,17,54,6.40
2011,03,03,17,55,6.40
2011,03,03,17,56,4.80
2011,03,03,17,57,8.10
2011,03,03,17,58,6.40
2011,03,03,17,59,8.10
2011,03,03,18,00,14.50
2011,03,03,18,01,16.10
2011,03,03,18,02,14.50
2011,03,03,18,03,16.10
2011,03,03,18,04,11.30
2011,03,03,18,05,16.10
2011,03,03,18,06,22.50
2011,03,03,18,07,35.40
2011,03,03,18,08,43.50
2011,03,03,18,09,37.00
2011,03,03,18,10,27.40
2011,03,03,18,11,29.00
2011,03,03,18,12,29.00
2011,03,03,18,13,27.40
2011,03,03,18,14,30.60
2011,03,03,18,15,29.00
2011,03,03,18,16,24.20
2011,03,03,18,17,19.30
2011,03,03,18,18,17.70
2011,03,03,18,19,19.30
2011,03,03,18,20,24.20
2011,03,03,18,21,16.10
2011,03,03,18,22,22.50
2011,03,03,18,23,19.30
2011,03,03,18,24,11.30
2011,03,03,18,25,14.50
2011,03,03,18,26,22.50
2011,03,03,18,27,16.10
2011,03,03,18,28,22.50
2011,03,03,18,29,25.70
2011,03,03,18,30,29.00
2011,03,03,18,31,22.50
2011,03,03,18,32,24.20
2011,03,03,18,33,25.70
2011,03,03,18,34,20.90
2011,03,03,18,35,22.50
2011,03,03,18,36,24.20
2011,03,03,18,37,20.90
2011,03,03,18,38,20.90
2011,03,03,18,39,22.50
2011,03,03,18,40,20.90
2011,03,03,18,41,20.90
2011,03,03,18,42,24.20
2011,03,03,18,43,20.90
2011,03,03,18,44,20.90
2011,03,03,18,45,17.70
2011,03,03,18,46,20.90
2011,03,03,18,47,20.90
2011,03,03,18,48,17.70
2011,03,03,18,49,24.20
2011,03,03,18,50,19.30
2011,03,03,18,51,25.70
2011,03,03,18,52,20.90
2011,03,03,18,53,19.30
2011,03,03,18,54,19.30
2011,03,03,18,55,20.90
2011,03,03,18,56,19.30
2011,03,03,18,57,22.50
2011,03,03,18,58,25.70
2011,03,03,18,59,24.20
2011,03,03,19,00,24.20
2011,03,03,19,01,19.30
2011,03,03,19,02,19.30
2011,03,03,19,03,17.70
2011,03,03,19,04,16.10
2011,03,03,19,05,17.70
2011,03,03,19,06,16.10
2011,03,03,19,07,22.50
2011,03,03,19,08,12.90
2011,03,03,19,09,9.60
2011,03,03,19,10,14.50
2011,03,03,19,11,16.10
2011,03,03,19,12,9.60
2011,03,03,19,13,12.90
2011,03,03,19,14,14.50
2011,03,03,19,15,17.70
2011,03,03,19,16,9.60
2011,03,03,19,17,11.30
2011,03,03,19,18,11.30
2011,03,03,19,19,8.10
2011,03,03,19,20,8.10
2011,03,03,19,21,6.40
2011,03,03,19,22,9.60
2011,03,03,19,23,11.30
2011,03,03,19,24,11.30
2011,03,03,19,25,8.10
2011,03,03,19,26,11.30
2011,03,03,19,27,11.30
2011,03,03,19,28,6.40
2011,03,03,19,29,11.30
2011,03,03,19,30,9.60
2011,03,03,19,31,8.10
2011,03,03,19,32,8.10
2011,03,03,19,33,8.10
2011,03,03,19,34,9.60
2011,03,03,19,35,8.10
2011,03,03,19,36,8.10
2011,03,03,19,37,8.10
2011,03,03,19,38,6.40
2011,03,03,19,39,8.10
2011,03,03,19,40,9.60
2011,03,03,19,41,11.30
2011,03,03,19,42,6.40
2011,03,03,19,43,9.60
2011,03,03,19,44,8.10
2011,03,03,19,45,6.40
2011,03,03,19,46,9.60
2011,03,03,19,47,9.60
2011,03,03,19,48,11.30
2011,03,03,19,49,11.30
2011,03,03,19,50,9.60
2011,03,03,19,51,8.10
2011,03,03,19,52,9.60
2011,03,03,19,53,9.60
2011,03,03,19,54,6.40
2011,03,03,19,55,9.60
2011,03,03,19,56,8.10
2011,03,03,19,57,8.10
2011,03,03,19,58,11.30
2011,03,03,19,59,9.60
2011,03,03,20,00,11.30
2011,03,03,20,01,11.30
2011,03,03,20,02,9.60
2011,03,03,20,03,8.10
2011,03,03,20,04,11.30
2011,03,03,20,05,9.60
2011,03,03,20,06,8.10
2011,03,03,20,07,9.60
2011,03,03,20,08,8.10
2011,03,03,20,09,11.30
2011,03,03,20,10,9.60
2011,03,03,20,11,8.10
2011,03,03,20,12,8.10
2011,03,03,20,13,14.50
2011,03,03,20,14,14.50
2011,03,03,20,15,8.10
2011,03,03,20,16,14.50
2011,03,03,20,17,9.60
2011,03,03,20,18,8.10
2011,03,03,20,19,12.90
2011,03,03,20,20,11.30
2011,03,03,20,21,11.30
2011,03,03,20,22,8.10
2011,03,03,20,23,9.60
2011,03,03,20,24,9.60
2011,03,03,20,25,9.60
2011,03,03,20,26,9.60
2011,03,03,20,27,12.90
2011,03,03,20,28,9.60
2011,03,03,20,29,6.40
2011,03,03,20,30,6.40
2011,03,03,20,31,8.10
2011,03,03,20,32,6.40
2011,03,03,20,33,6.40
2011,03,03,20,34,9.60
2011,03,03,20,35,9.60
2011,03,03,20,36,11.30
2011,03,03,20,37,11.30
2011,03,03,20,38,8.10
2011,03,03,20,39,8.10
2011,03,03,20,40,6.40
2011,03,03,20,41,6.40
2011,03,03,20,42,6.40
2011,03,03,20,43,8.10
2011,03,03,20,44,6.40
2011,03,03,20,45,8.10
2011,03,03,20,46,6.40
2011,03,03,20,47,8.10
2011,03,03,20,48,6.40
2011,03,03,20,49,6.40
2011,03,03,20,50,4.80
2011,03,03,20,51,4.80
2011,03,03,20,52,4.80
2011,03,03,20,53,3.20
2011,03,03,20,54,4.80
2011,03,03,20,55,4.80
2011,03,03,20,56,8.10
2011,03,03,20,57,6.40
2011,03,03,20,58,8.10
2011,03,03,20,59,6.40
2011,03,03,21,00,6.40
2011,03,03,21,01,4.80
2011,03,03,21,02,4.80
2011,03,03,21,03,3.20
2011,03,03,21,04,4.80
2011,03,03,21,05,4.80
2011,03,03,21,06,4.80
2011,03,03,21,07,3.20
2011,03,03,21,08,1.60
2011,03,03,21,09,3.20
2011,03,03,21,10,3.20
2011,03,03,21,11,3.20
2011,03,03,21,12,3.20
2011,03,03,21,13,4.80
2011,03,03,21,14,4.80
2011,03,03,21,15,3.20
2011,03,03,21,16,3.20
2011,03,03,21,17,3.20
2011,03,03,21,18,3.20
2011,03,03,21,19,3.20
2011,03,03,21,20,4.80
2011,03,03,21,21,4.80
2011,03,03,21,22,3.20
2011,03,03,21,23,3.20
2011,03,03,21,24,3.20
2011,03,03,21,25,6.40
2011,03,03,21,26,6.40
2011,03,03,21,27,4.80
2011,03,03,21,28,4.80
2011,03,03,21,29,4.80
2011,03,03,21,30,4.80
2011,03,03,21,31,4.80
2011,03,03,21,32,4.80
2011,03,03,21,33,4.80
2011,03,03,21,34,4.80
2011,03,03,21,35,6.40
2011,03,03,21,36,4.80
2011,03,03,21,37,6.40
2011,03,03,21,38,6.40
2011,03,03,21,39,6.40
2011,03,03,21,40,6.40
2011,03,03,21,41,6.40
2011,03,03,21,42,6.40
2011,03,03,21,43,6.40
2011,03,03,21,44,6.40
2011,03,03,21,45,6.40
2011,03,03,21,46,6.40
2011,03,03,21,47,4.80
2011,03,03,21,48,6.40
2011,03,03,21,49,6.40
2011,03,03,21,50,6.40
2011,03,03,21,51,6.40
2011,03,03,21,52,4.80
2011,03,03,21,53,6.40
2011,03,03,21,54,6.40
2011,03,03,21,55,6.40
2011,03,03,21,56,6.40
2011,03,03,21,57,8.10
2011,03,03,21,58,6.40
2011,03,03,21,59,8.10
2011,03,03,22,00,9.60
2011,03,03,22,01,9.60
2011,03,03,22,02,9.60
2011,03,03,22,03,9.60
2011,03,03,22,04,8.10
2011,03,03,22,05,8.10
2011,03,03,22,06,6.40
2011,03,03,22,07,6.40
2011,03,03,22,08,8.10
2011,03,03,22,09,8.10
2011,03,03,22,10,9.60
2011,03,03,22,11,8.10
2011,03,03,22,12,6.40
2011,03,03,22,13,6.40
2011,03,03,22,14,4.80
2011,03,03,22,15,6.40
2011,03,03,22,16,4.80
2011,03,03,22,17,4.80
2011,03,03,22,18,4.80
2011,03,03,22,19,3.20
2011,03,03,22,20,3.20
2011,03,03,22,21,3.20
2011,03,03,22,22,3.20
2011,03,03,22,26,3.20
2011,03,03,22,27,3.20
2011,03,03,22,28,4.80
2011,03,03,22,29,4.80
2011,03,03,22,30,3.20
2011,03,03,22,31,4.80
2011,03,03,22,32,4.80
2011,03,03,22,33,4.80
2011,03,03,22,34,4.80
2011,03,03,22,35,4.80
2011,03,03,22,36,4.80
2011,03,03,22,37,4.80
2011,03,03,22,38,6.40
2011,03,03,22,39,6.40
2011,03,03,22,40,6.40
2011,03,03,22,41,6.40
2011,03,03,22,42,6.40
2011,03,03,22,43,8.10
2011,03,03,22,44,8.10
2011,03,03,22,45,8.10
2011,03,03,22,46,8.10
2011,03,03,22,47,8.10
2011,03,03,22,48,9.60
2011,03,03,22,49,9.60
2011,03,03,22,50,8.10
2011,03,03,22,51,8.10
2011,03,03,22,52,8.10
2011,03,03,22,53,9.60
2011,03,03,22,54,8.10
2011,03,03,22,55,8.10
2011,03,03,22,56,9.60
2011,03,03,22,57,9.60
2011,03,03,22,58,8.10